Overview Statistics Trail Chart Weather Telemetry Raw packets
 

This is the latest recevied weather packets stored in our database for station/object R2AKT-13. If no packets are shown the sender has not sent any weather packets the latest 10 day(s).

<< 11 12 13 14 15 16 17 >>
Time Temp. Humidity Pressure Rain* Wind** Luminosity Snow
1788550981 16.11° C 62% 983.3 hPa - 2.68 m/s, 182° - -
1788550445 16.11° C 61% 983.4 hPa - 3.58 m/s, 181° - -
1788549906 16.11° C 61% 983.7 hPa - 2.68 m/s, 172° - -
1788549386 16.67° C 61% 983.8 hPa - 3.13 m/s, 194° - -
1788548821 16.67° C 61% 983.9 hPa - 2.68 m/s, 184° - -
1788548286 16.67° C 60% 984 hPa - 2.68 m/s, 190° - -
1788547691 16.67° C 59% 984.2 hPa - 3.13 m/s, 179° - -
1788547111 16.67° C 59% 984.2 hPa - 3.13 m/s, 179° - -
1788546605 16.67° C 59% 984.3 hPa - 3.58 m/s, 176° - -
1788546036 16.67° C 59% 984.4 hPa - 3.13 m/s, 178° - -
1788545506 16.67° C 59% 984.5 hPa - 2.24 m/s, 181° - -
1788544981 17.22° C 58% 984.5 hPa - 1.79 m/s, 179° - -
1788544396 17.22° C 57% 984.5 hPa - 2.24 m/s, 168° - -
1788543826 17.22° C 57% 984.7 hPa - 2.24 m/s, 186° - -
1788543226 17.22° C 57% 984.7 hPa - 2.68 m/s, 191° - -
1788542671 17.22° C 57% 984.9 hPa - 1.79 m/s, 178° - -
1788542085 17.78° C 56% 984.9 hPa - 1.79 m/s, 170° - -
1788541521 17.78° C 55% 984.9 hPa - 2.24 m/s, 183° - -
1788541025 17.78° C 54% 984.8 hPa - 3.13 m/s, 173° - -
1788540516 17.78° C 54% 984.8 hPa - 2.68 m/s, 185° - -
1788540021 18.33° C 53% 984.8 hPa - 2.24 m/s, 181° - -
1788539525 18.33° C 53% 984.8 hPa - 2.24 m/s, 198° - -
1788538956 18.33° C 52% 984.7 hPa - 2.24 m/s, 192° - -
1788538391 18.89° C 51% 984.6 hPa - 2.24 m/s, 196° - -
1788537856 18.89° C 51% 984.6 hPa - 1.34 m/s, 188° - -

* Rain since midnight (hover to see other rain measurements)
** Current wind speed in m/s (hover to see current wind gust speed)